This is the latest recevied weather packets stored in our database for station/object KE8AFF-13. If no packets are shown the sender has not sent any weather packets the latest 10 day(s).
| Time | Temp. | Humidity | Pressure | Rain* | Wind** | Luminosity | Snow |
|---|---|---|---|---|---|---|---|
| 1777344697 | 17.78° C | 88% | 1008.3 hPa | 0 mm | - | 0 W/m² | - |
| 1777344393 | 17.22° C | 92% | 1008.5 hPa | 0 mm | - | 0 W/m² | - |
| 1777344091 | 16.11° C | 98% | 1008.4 hPa | 0 mm | - | 0 W/m² | - |
| 1777343788 | 16.11° C | 99% | 1008.4 hPa | 0 mm | - | 0 W/m² | - |
| 1777343486 | 16.11° C | 99% | 1008.3 hPa | 0 mm | - | 0 W/m² | - |
| 1777343183 | 16.11° C | 99% | 1008.8 hPa | 0 mm | - | 0 W/m² | - |
| 1777342881 | 16.11° C | 99% | 1009.3 hPa | 0 mm | - | 0 W/m² | - |
| 1777342577 | 16.11° C | 99% | 1009.4 hPa | 0 mm | - | 0 W/m² | - |
| 1777342274 | 16.11° C | 99% | 1009.5 hPa | 0 mm | - | 0 W/m² | - |
| 1777341971 | 15.56° C | 99% | 1010 hPa | 0 mm | - | 0 W/m² | - |
| 1777341668 | 15.56° C | 99% | 1010.3 hPa | 0 mm | - | 0 W/m² | - |
| 1777341363 | 15.56° C | 99% | 1010.8 hPa | 1.78 mm | - | 0 W/m² | - |
| 1777341060 | 15.56° C | 99% | 1011.5 hPa | 0 mm | - | 0 W/m² | - |
| 1777340757 | 15.56° C | 99% | 1011.9 hPa | 0 mm | - | 0 W/m² | - |
| 1777340456 | 15.56° C | 99% | 1012 hPa | 0 mm | - | 0 W/m² | - |
| 1777340153 | 16.11° C | 99% | 1011.9 hPa | 0 mm | - | 0 W/m² | - |
| 1777339849 | 16.11° C | 99% | 1012.5 hPa | 0 mm | - | 0 W/m² | - |
| 1777339547 | 16.11° C | 99% | 1012.4 hPa | 1.27 mm | - | 0 W/m² | - |
| 1777339244 | 16.11° C | 99% | 1013 hPa | 1.27 mm | - | 0 W/m² | - |
| 1777338942 | 16.67° C | 99% | 1013.1 hPa | 3.05 mm | - | 0 W/m² | - |
| 1777338638 | 16.67° C | 99% | 1013.5 hPa | 4.83 mm | - | 0 W/m² | - |
| 1777338337 | 16.67° C | 99% | 1013.7 hPa | 4.83 mm | - | 0 W/m² | - |
| 1777338033 | 16.11° C | 99% | 1013.6 hPa | 1.27 mm | - | 0 W/m² | - |
| 1777337729 | 16.11° C | 99% | 1013.7 hPa | 1.78 mm | - | 0 W/m² | - |
| 1777337427 | 16.11° C | 99% | 1013.8 hPa | 3.05 mm | - | 0 W/m² | - |
* Rain latest hour (hover to see other rain measurements)
** Current wind speed in m/s (hover to see current wind gust speed)